Regional Weather Roundup
Issued by NWS

Home | Current Version | Previous Version | Graphics & Text | Print | Product List | Glossary On
Versions: 1 2 3 4 5 6 7 8 9 10 11 12 13 14 15 16 17 18 19 20 21 22 23 24 25 26 27 28 29 30 31 32 33 34 35 36 37 38 39 40 41 42 43 44 45 46 47 48 49 50
000
ASUS43 KLMK 030310
RWRKY
KENTUCKY REGIONAL WEATHER ROUNDUP
NATIONAL WEATHER SERVICE LOUISVILLE KY
1100 PM EDT WED SEP 02 2015

NOTE "FAIR" INDICATES FEW OR NO CLOUDS BELOW 12,000 FEET
WITH NO SIGNIFICANT WEATHER AND/OR OBSTRUCTIONS TO VISIBILITY.

KYZ001>023-026-027-061>063-070>075-030400-
WESTERN AND SOUTH CENTRAL KENTUCKY

CITY           SKY/WX    TMP DP  RH WIND       PRES   REMARKS
PADUCAH        CLEAR     72  69  90 CALM      30.01R
HENDERSON      CLEAR     72  66  83 CALM      30.02R
OWENSBORO      CLEAR     77  70  79 CALM      30.03R
HOPKINSVILLE   CLEAR     76  67  73 NE3       30.02R
BOWLING GREEN  CLEAR     76  67  73 CALM      30.03S
GLASGOW        CLEAR     72  67  85 CALM      30.04S
$$

KYZ024-025-028>034-038-045-046-053-030400-
NORTH CENTRAL KENTUCKY

CITY           SKY/WX    TMP DP  RH WIND       PRES   REMARKS
LOUISVILLE/SDF CLEAR     81  68  64 W3        30.02S
LOUISVILLE/LOU CLEAR     78  70  76 CALM      30.03S
FORT KNOX      CLEAR     71  67  88 SW1       30.03R
$$

KYZ035>037-039>044-047>052-055>060-089>105-030400-
NORTHEAST KENTUCKY

CITY           SKY/WX    TMP DP  RH WIND       PRES   REMARKS
LEXINGTON      CLEAR     75  67  76 CALM      30.06R
COVINGTON      PTCLDY    73  67  81 CALM      30.05S
FRANKFORT      CLEAR     73  66  78 N3        30.04S
$$

KYZ054-064>069-076>088-106>120-030400-
SOUTHEAST KENTUCKY

CITY           SKY/WX    TMP DP  RH WIND       PRES   REMARKS
JACKSON        CLEAR     75  65  70 CALM      30.08R
LONDON         CLEAR     73  65  75 CALM      30.07S
SOMERSET       FAIR      70  68  94 CALM      30.06S
MIDDLESBORO    MOCLDY    70  67  92 CALM      30.09R
MONTICELLO     PTCLDY    68  68 100 CALM      30.08S
$$



USA.gov is the U.S. government's official web portal to all federal, state and local government web resources and services.